Weather History for Marshfield, WI

Change the Weather History Date:

Tuesday, November 8, 2011

  Actual Average Record
Temperature  
Mean Temperature 40 °F -  
Max Temperature 43 °F 45 °F 73 °F (1999)
Min Temperature 37 °F 26 °F -2 °F (1991)
Degree Days  
Heating Degree Days 25    
Moisture  
Dew Point 29 °F    
Average Humidity 62    
Maximum Humidity 67    
Minimum Humidity 55    
Precipitation  
Precipitation 0.00 in - - ()
Sea Level Pressure  
Sea Level Pressure 30.15 in    
Wind  
Wind Speed 5 mph (NE)    
Max Wind Speed 10 mph    
Max Gust Speed -    
Visibility 10 miles    
Events      
Averages and records for this station are not official NWS values.
T = Trace of Precipitation, MM = Missing Value Source: NWS Daily Summary

Daily Weather History Graph

Daily Weather History Graph

Search for Another Location

Airport:

Trip Planner

Search our weather history database for the weather conditions in past years. The results will help you decide how hot, cold, wet, or windy it might be!

Date:

Astronomy

Nov. 08, 2011 Rise Set
Actual Time 6:47 AM CST 4:40 PM CST
Civil Twilight 6:16 AM CST 5:11 PM CST
Nautical Twilight 5:41 AM CST 5:46 PM CST
Astronomical Twilight 5:07 AM CST 6:20 PM CST
Moon 3:22 PM CST (11/8) 4:43 AM CST (11/8)
Length of Visible Light 10h 55m
Length of Day
9h 53m
Waxing Gibbous, 96% of the Moon is Illuminated
Nov 8
Waxing Gibbous
Nov 10
Full
Nov 18
Last Quarter
Nov 25
New
Dec 2
First Quarter

Hourly Weather History & Observations

Time (CST) Temp. Windchill Dew Point Humidity Pressure Visibility Wind Dir Wind Speed Gust Speed Precip Events Conditions
12:54 AM 37.9 °F - 25.0 °F 60% 30.22 in 10.0 mi Calm Calm - N/A   Clear
1:54 AM 39.9 °F 35.8 °F 25.0 °F 55% 30.20 in 10.0 mi North 5.8 mph - N/A   Clear
3:54 AM 39.9 °F 35.8 °F 25.0 °F 55% 30.18 in 10.0 mi NE 5.8 mph - N/A   Overcast
4:54 AM 37.9 °F 32.1 °F 26.1 °F 62% 30.19 in 10.0 mi ENE 8.1 mph - N/A   Overcast
6:54 AM 37.9 °F 32.7 °F 27.0 °F 65% 30.19 in 10.0 mi NNE 6.9 mph - N/A   Overcast
7:54 AM 37.9 °F 32.7 °F 27.0 °F 65% 30.18 in 10.0 mi NNE 6.9 mph - N/A   Overcast
8:54 AM 39.9 °F 34.5 °F 27.0 °F 60% 30.18 in 10.0 mi ENE 8.1 mph - N/A   Overcast
9:54 AM 41.0 °F 35.2 °F 28.9 °F 62% 30.16 in 10.0 mi East 9.2 mph - N/A   Mostly Cloudy
10:54 AM 42.1 °F 36.6 °F 28.9 °F 60% 30.16 in 10.0 mi ESE 9.2 mph - N/A   Overcast
11:54 AM 42.1 °F 39.2 °F 30.0 °F 62% 30.15 in 10.0 mi East 4.6 mph - N/A   Overcast
12:54 PM 42.1 °F - 30.9 °F 65% 30.15 in 10.0 mi Calm Calm - N/A   Overcast
1:54 PM 43.0 °F 41.3 °F 30.9 °F 62% 30.13 in 10.0 mi East 3.5 mph - N/A   Overcast
2:54 PM 43.0 °F 41.3 °F 32.0 °F 65% 30.12 in 10.0 mi NE 3.5 mph - N/A   Overcast
3:54 PM 43.0 °F 39.5 °F 30.0 °F 60% 30.12 in 10.0 mi NNE 5.8 mph - N/A   Overcast
4:54 PM 42.1 °F 38.4 °F 30.0 °F 62% 30.12 in 10.0 mi NNE 5.8 mph - N/A   Overcast
5:54 PM 42.1 °F 37.1 °F 30.0 °F 62% 30.13 in 10.0 mi NNE 8.1 mph - N/A   Overcast
6:54 PM 42.1 °F 36.6 °F 30.0 °F 62% 30.13 in 10.0 mi NNE 9.2 mph - N/A   Overcast
7:54 PM 41.0 °F 35.2 °F 30.0 °F 65% 30.13 in 10.0 mi NNE 9.2 mph - N/A   Overcast
8:54 PM 39.9 °F 33.4 °F 28.9 °F 65% 30.11 in 10.0 mi NNE 10.4 mph - N/A   Overcast
9:54 PM 39.9 °F 35.1 °F 28.9 °F 65% 30.14 in 10.0 mi NE 6.9 mph - N/A   Overcast
10:54 PM 39.0 °F 33.4 °F 28.9 °F 67% 30.10 in 10.0 mi NNE 8.1 mph - N/A   Overcast
11:54 PM 39.0 °F 34.8 °F 28.9 °F 67% 30.09 in 10.0 mi NNE 5.8 mph - N/A   Overcast